User: anonymous   Login
Location: Freistadt
(48.5112°N, 14.5013°E)
Time: 11:05:03
(UTC+01:00)
Language:

deb Delta 139 - Orbit

View from above orbital plane
View from above orbital plane
View from above satellite
View from above satellite

Ground track
Ground track

The orbit data is extracted from the following two-line orbital elements,

1 12185U 78026AA  23340.68398358  .00001165  00000-0  60878-3 0  9997
2 12185  99.1508 285.6296 0094988  21.5462  99.4436 14.14171787198641
Epoch (UTC): 06 December 2023 16:24:56
Eccentricity: 0.0094988
inclination: 99.1508°
perigee height: 776 km
apogee height: 914 km
right ascension of ascending node: 285.6296°
argument of perigee: 21.5462°
revolutions per day: 14.14171787
mean anomaly at epoch: 99.4436°
orbit number at epoch: 19864

The dashed part of the orbit path shows where the satellite is in the earth's shadow,  

DLR